| time (UTC) | temp C | wind direction | speed KPH | gust KPH | rain 1hr cm | rain 24hr cm | rain mn cm | humidity % | barometer mb |
| 20260906232021 | 31 | 321 | 0.0 | 3.2 | 0.00 | 0.00 | 0.00 | 53 | 1012.3 |
| 20260906231021 | 31 | 322 | 0.0 | 8.0 | 0.00 | 0.00 | 0.00 | 50 | 1012.2 |
| 20260906230021 | 31 | 314 | 0.0 | 6.4 | 0.00 | 0.00 | 0.00 | 52 | 1012.2 |
| 20260906225021 | 32 | 320 | 0.0 | 6.4 | 0.00 | 0.00 | 0.00 | 51 | 1012.2 |
| 20260906224021 | 32 | 323 | 0.0 | 9.7 | 0.00 | 0.00 | 0.00 | 50 | 1012.0 |
| 20260906223016 | 32 | 349 | 1.6 | 12.9 | 0.00 | 0.00 | 0.00 | 51 | 1012.1 |
| 20260906222038 | 32 | 347 | 0.0 | 11.3 | 0.00 | 0.00 | 0.00 | 50 | 1012.2 |
| 20260906221021 | 32 | 336 | 3.2 | 11.3 | 0.00 | 0.00 | 0.00 | 51 | 1012.4 |
| 20260906220022 | 32 | 290 | 0.0 | 9.7 | 0.00 | 0.00 | 0.00 | 51 | 1012.5 |
| 20260906215021 | 32 | 340 | 1.6 | 9.7 | 0.00 | 0.00 | 0.00 | 51 | 1012.5 |
| 20260906214042 | 32 | 18 | 0.0 | 9.7 | 0.00 | 0.00 | 0.00 | 54 | 1012.7 |
| 20260906213021 | 32 | 87 | 0.0 | 6.4 | 0.00 | 0.00 | 0.00 | 51 | 1012.8 |
| 20260906212016 | 32 | 55 | 1.6 | 11.3 | 0.00 | 0.00 | 0.00 | 50 | 1012.9 |
| 20260906211021 | 32 | 70 | 1.6 | 9.7 | 0.00 | 0.00 | 0.00 | 52 | 1012.9 |
| 20260906210022 | 31 | 131 | 0.0 | 8.0 | 0.00 | 0.00 | 0.00 | 53 | 1012.9 |
| 20260906205021 | 32 | 249 | 1.6 | 11.3 | 0.00 | 0.00 | 0.00 | 55 | 1012.9 |
| 20260906204021 | 31 | 2 | 0.0 | 11.3 | 0.00 | 0.00 | 0.00 | 58 | 1012.9 |
| 20260906203021 | 31 | 12 | 0.0 | 16.1 | 0.00 | 0.00 | 0.00 | 57 | 1012.9 |
| 20260906202021 | 32 | 112 | 0.0 | 11.3 | 0.00 | 0.00 | 0.00 | 57 | 1013.1 |
| 20260906201016 | 32 | 341 | 1.6 | 11.3 | 0.00 | 0.00 | 0.00 | 58 | 1013.4 |
| 20260906200022 | 31 | 341 | 1.6 | 17.7 | 0.00 | 0.00 | 0.00 | 58 | 1013.4 |
| 20260906195041 | 31 | 143 | 1.6 | 11.3 | 0.00 | 0.00 | 0.00 | 60 | 1013.5 |
| 20260906194041 | 31 | 77 | 1.6 | 12.9 | 0.00 | 0.00 | 0.00 | 59 | 1013.6 |
| 20260906193021 | 31 | 130 | 1.6 | 9.7 | 0.00 | 0.00 | 0.00 | 60 | 1013.7 |
| 20260906192021 | 30 | 141 | 1.6 | 9.7 | 0.00 | 0.00 | 0.00 | 62 | 1014.0 |
| 20260906191036 | 31 | 329 | 1.6 | 12.9 | 0.00 | 0.00 | 0.00 | 63 | 1014.1 |
| 20260906190017 | 30 | 124 | 1.6 | 9.7 | 0.00 | 0.00 | 0.00 | 64 | 1014.1 |
| 20260906185022 | 31 | 335 | 1.6 | 16.1 | 0.00 | 0.00 | 0.00 | 65 | 1014.2 |
| 20260906184022 | 30 | 330 | 0.0 | 11.3 | 0.00 | 0.00 | 0.00 | 64 | 1014.2 |
| 20260906183042 | 30 | 320 | 1.6 | 9.7 | 0.00 | 0.00 | 0.00 | 65 | 1014.4 |
| 20260906182021 | 29 | 112 | 1.6 | 11.3 | 0.00 | 0.00 | 0.00 | 68 | 1014.6 |
| 20260906181021 | 30 | 355 | 1.6 | 9.7 | 0.00 | 0.00 | 0.00 | 68 | 1014.7 |
| 20260906180016 | 30 | 337 | 1.6 | 9.7 | 0.00 | 0.00 | 0.00 | 69 | 1014.8 |
| 20260906175022 | 29 | 13 | 1.6 | 8.0 | 0.00 | 0.00 | 0.00 | 70 | 1015.0 |
| 20260906174021 | 29 | 320 | 0.0 | 12.9 | 0.00 | 0.00 | 0.00 | 72 | 1015.1 |
| 20260906173021 | 29 | 91 | 1.6 | 12.9 | 0.00 | 0.00 | 0.00 | 69 | 1015.2 |
| 20260906172022 | 29 | 327 | 1.6 | 8.0 | 0.00 | 0.00 | 0.00 | 71 | 1015.2 |
| 20260906171021 | 29 | 326 | 1.6 | 11.3 | 0.00 | 0.00 | 0.00 | 72 | 1015.2 |
| 20260906170037 | 28 | 326 | 3.2 | 11.3 | 0.00 | 0.00 | 0.00 | 71 | 1015.4 |
| 20260906165036 | 28 | 312 | 0.0 | 8.0 | 0.00 | 0.00 | 0.00 | 72 | 1015.3 |
| 20260906164042 | 27 | 1 | 0.0 | 9.7 | 0.00 | 0.00 | 0.00 | 75 | 1015.5 |
| 20260906163021 | 27 | 349 | 1.6 | 11.3 | 0.00 | 0.00 | 0.00 | 76 | 1015.4 |
| 20260906162021 | 27 | 100 | 1.6 | 9.7 | 0.00 | 0.00 | 0.00 | 74 | 1015.4 |
| 20260906161043 | 26 | 242 | 0.0 | 8.0 | 0.00 | 0.00 | 0.00 | 78 | 1015.4 |
| 20260906160022 | 25 | 104 | 1.6 | 8.0 | 0.00 | 0.00 | 0.00 | 80 | 1015.3 |
| 20260906155037 | 25 | 315 | 0.0 | 8.0 | 0.00 | 0.00 | 0.00 | 81 | 1015.4 |
| 20260906154021 | 25 | 349 | 0.0 | 9.7 | 0.00 | 0.00 | 0.00 | 83 | 1015.3 |
| 20260906153021 | 25 | 335 | 0.0 | 8.0 | 0.00 | 0.00 | 0.00 | 84 | 1015.3 |
| 20260906152021 | 25 | 335 | 1.6 | 9.7 | 0.00 | 0.00 | 0.00 | 83 | 1015.2 |
| 20260906151021 | 25 | 311 | 0.0 | 6.4 | 0.00 | 0.00 | 0.00 | 84 | 1015.1 |
| 20260906150041 | 25 | 326 | 1.6 | 8.0 | 0.00 | 0.00 | 0.00 | 84 | 1015.2 |
| 20260906145022 | 24 | 322 | 1.6 | 8.0 | 0.00 | 0.00 | 0.00 | 86 | 1015.1 |
| 20260906144036 | 24 | 318 | 0.0 | 4.8 | 0.00 | 0.00 | 0.00 | 87 | 1015.1 |
| 20260906143021 | 24 | 324 | 0.0 | 9.7 | 0.00 | 0.00 | 0.00 | 88 | 1015.1 |
| 20260906142021 | 24 | 326 | 1.6 | 9.7 | 0.00 | 0.00 | 0.00 | 87 | 1015.2 |
| 20260906141021 | 23 | 345 | 0.0 | 6.4 | 0.00 | 0.00 | 0.00 | 87 | 1015.1 |
| 20260906140021 | 23 | 89 | 0.0 | 3.2 | 0.00 | 0.00 | 0.00 | 88 | 1014.9 |
| 20260906135041 | 23 | 154 | 0.0 | 4.8 | 0.00 | 0.00 | 0.00 | 88 | 1014.9 |
| 20260906134036 | 23 | 323 | 0.0 | 4.8 | 0.00 | 0.00 | 0.00 | 88 | 1014.8 |
| 20260906133016 | 23 | 331 | 0.0 | 6.4 | 0.00 | 0.00 | 0.00 | 88 | 1014.9 |
| 20260906132021 | 24 | 339 | 0.0 | 9.7 | 0.00 | 0.00 | 0.00 | 87 | 1014.9 |
| 20260906131021 | 24 | 71 | 0.0 | 4.8 | 0.00 | 0.00 | 0.00 | 87 | 1014.8 |
| 20260906130041 | 24 | 121 | 0.0 | 4.8 | 0.00 | 0.00 | 0.00 | 87 | 1014.6 |
| 20260906125019 | 24 | 207 | 0.0 | 4.8 | 0.00 | 0.00 | 0.00 | 88 | 1014.6 |
| 20260906124021 | 23 | 300 | 0.0 | 3.2 | 0.00 | 0.00 | 0.00 | 90 | 1014.5 |
| 20260906123016 | 23 | 0.0 | 0.0 | 0.00 | 0.00 | 0.00 | 92 | 1014.3 | |
| 20260906122021 | 23 | 0.0 | 0.0 | 0.00 | 0.00 | 0.00 | 92 | 1014.2 | |
| 20260906121021 | 22 | 0.0 | 0.0 | 0.00 | 0.00 | 0.00 | 92 | 1014.1 | |
| 20260906120022 | 22 | 0.0 | 0.0 | 0.00 | 0.00 | 0.00 | 92 | 1014.1 | |
| 20260906115021 | 23 | 0.0 | 0.0 | 0.00 | 0.00 | 0.00 | 91 | 1014.1 | |
| 20260906114021 | 23 | 0.0 | 0.0 | 0.00 | 0.00 | 0.00 | 91 | 1014.0 | |
| 20260906113057 | 23 | 0.0 | 0.0 | 0.00 | 0.00 | 0.00 | 91 | 1013.9 | |
| 20260906112016 | 23 | 0.0 | 0.0 | 0.00 | 0.00 | 0.00 | 90 | 1013.9 | |
| 20260906111041 | 23 | 0.0 | 0.0 | 0.00 | 0.00 | 0.00 | 90 | 1013.7 | |
| 20260906110021 | 23 | 0.0 | 0.0 | 0.00 | 0.00 | 0.00 | 90 | 1013.6 | |
| 20260906105041 | 23 | 0.0 | 0.0 | 0.00 | 0.00 | 0.00 | 90 | 1013.4 | |
| 20260906104021 | 23 | 0.0 | 0.0 | 0.00 | 0.00 | 0.00 | 89 | 1013.3 | |
| 20260906103021 | 23 | 0.0 | 0.0 | 0.00 | 0.00 | 0.00 | 89 | 1013.2 | |
| 20260906102016 | 23 | 0.0 | 0.0 | 0.00 | 0.00 | 0.00 | 89 | 1013.1 | |
| 20260906101022 | 23 | 0.0 | 0.0 | 0.00 | 0.00 | 0.00 | 89 | 1013.0 | |
| 20260906100023 | 24 | 0.0 | 0.0 | 0.00 | 0.00 | 0.00 | 87 | 1013.0 | |
| 20260906095021 | 25 | 0.0 | 0.0 | 0.00 | 0.00 | 0.00 | 86 | 1012.8 | |
| 20260906094021 | 25 | 0.0 | 3.2 | 0.00 | 0.00 | 0.00 | 85 | 1012.7 | |
| 20260906093021 | 25 | 0.0 | 1.6 | 0.00 | 0.00 | 0.00 | 85 | 1012.7 | |
| 20260906092041 | 25 | 0.0 | 0.0 | 0.00 | 0.00 | 0.00 | 86 | 1012.6 | |
| 20260906091036 | 25 | 0.0 | 0.0 | 0.00 | 0.00 | 0.00 | 87 | 1012.5 | |
| 20260906090021 | 25 | 0.0 | 0.0 | 0.00 | 0.00 | 0.00 | 87 | 1012.4 | |
| 20260906085021 | 25 | 0.0 | 0.0 | 0.00 | 0.00 | 0.00 | 88 | 1012.3 | |
| 20260906084021 | 25 | 0.0 | 0.0 | 0.00 | 0.00 | 0.00 | 87 | 1012.1 | |
| 20260906083021 | 25 | 0.0 | 0.0 | 0.00 | 0.00 | 0.00 | 86 | 1012.1 | |
| 20260906082021 | 26 | 0.0 | 0.0 | 0.00 | 0.00 | 0.00 | 86 | 1012.2 | |
| 20260906081016 | 26 | 0.0 | 1.6 | 0.00 | 0.00 | 0.00 | 85 | 1012.1 | |
| 20260906080021 | 26 | 0.0 | 0.0 | 0.00 | 0.00 | 0.00 | 84 | 1012.1 | |
| 20260906075021 | 26 | 0.0 | 0.0 | 0.00 | 0.00 | 0.00 | 85 | 1012.2 | |
| 20260906074021 | 26 | 300 | 0.0 | 3.2 | 0.00 | 0.00 | 0.00 | 84 | 1012.2 |
| 20260906073021 | 26 | 300 | 0.0 | 3.2 | 0.00 | 0.00 | 0.00 | 84 | 1012.4 |
| 20260906072021 | 26 | 0.0 | 0.0 | 0.00 | 0.00 | 0.00 | 83 | 1012.4 | |
| 20260906071021 | 27 | 300 | 0.0 | 3.2 | 0.00 | 0.00 | 0.00 | 82 | 1012.3 |
| 20260906070017 | 27 | 0.0 | 1.6 | 0.00 | 0.00 | 0.00 | 81 | 1012.5 | |
| 20260906065021 | 27 | 0.0 | 3.2 | 0.00 | 0.00 | 0.00 | 80 | 1012.6 | |
| 20260906064021 | 27 | 299 | 0.0 | 3.2 | 0.00 | 0.00 | 0.00 | 80 | 1012.7 |
| 20260906063022 | 27 | 292 | 0.0 | 3.2 | 0.00 | 0.00 | 0.00 | 80 | 1012.8 |
| 20260906062022 | 27 | 274 | 0.0 | 1.6 | 0.00 | 0.00 | 0.00 | 80 | 1012.8 |
| 20260906061022 | 26 | 274 | 0.0 | 1.6 | 0.00 | 0.00 | 0.00 | 81 | 1012.7 |
| 20260906060016 | 26 | 0.0 | 1.6 | 0.00 | 0.00 | 0.00 | 82 | 1012.7 | |
| 20260906055036 | 26 | 0.0 | 0.0 | 0.00 | 0.00 | 0.00 | 82 | 1012.8 | |
| 20260906054021 | 25 | 0.0 | 0.0 | 0.00 | 0.00 | 0.00 | 83 | 1012.7 | |
| 20260906053022 | 25 | 0.0 | 0.0 | 0.00 | 0.00 | 0.00 | 83 | 1012.7 | |
| 20260906052021 | 24 | 0.0 | 0.0 | 0.00 | 0.00 | 0.00 | 84 | 1012.6 | |
| 20260906051021 | 24 | 0.0 | 0.0 | 0.00 | 0.00 | 0.00 | 85 | 1012.5 | |
| 20260906050021 | 25 | 0.0 | 0.0 | 0.00 | 0.00 | 0.00 | 83 | 1012.4 | |
| 20260906045020 | 25 | 0.0 | 0.0 | 0.00 | 0.00 | 0.00 | 81 | 1012.4 | |
| 20260906044022 | 25 | 0.0 | 0.0 | 0.00 | 0.00 | 0.00 | 80 | 1012.3 | |
| 20260906043017 | 25 | 0.0 | 0.0 | 0.00 | 0.00 | 0.00 | 81 | 1012.2 | |
| 20260906042102 | 25 | 0.0 | 0.0 | 0.00 | 0.00 | 0.00 | 82 | 1012.1 | |
| 20260906041022 | 25 | 0.0 | 0.0 | 0.00 | 0.00 | 0.00 | 81 | 1012.1 | |
| 20260906040022 | 25 | 0.0 | 0.0 | 0.00 | 0.00 | 0.00 | 82 | 1011.9 | |
| 20260906035022 | 25 | 0.0 | 0.0 | 0.00 | 0.00 | 0.00 | 81 | 1011.9 | |
| 20260906034022 | 26 | 0.0 | 0.0 | 0.00 | 0.00 | 0.00 | 80 | 1011.9 | |
| 20260906033037 | 26 | 0.0 | 0.0 | 0.00 | 0.00 | 0.00 | 79 | 1011.8 | |
| 20260906032037 | 26 | 0.0 | 0.0 | 0.00 | 0.00 | 0.00 | 78 | 1011.7 | |
| 20260906031022 | 26 | 0.0 | 0.0 | 0.00 | 0.00 | 0.00 | 77 | 1011.8 | |
| 20260906030022 | 27 | 0.0 | 0.0 | 0.00 | 0.00 | 0.00 | 75 | 1011.6 | |
| 20260906025022 | 27 | 0.0 | 0.0 | 0.00 | 0.00 | 0.00 | 72 | 1011.6 | |
| 20260906024022 | 27 | 0.0 | 0.0 | 0.00 | 0.00 | 0.00 | 74 | 1011.6 | |
| 20260906023042 | 27 | 0.0 | 0.0 | 0.00 | 0.00 | 0.00 | 75 | 1011.6 | |
| 20260906022017 | 27 | 0.0 | 0.0 | 0.00 | 0.00 | 0.00 | 74 | 1011.4 | |
| 20260906021022 | 28 | 0.0 | 0.0 | 0.00 | 0.00 | 0.00 | 70 | 1011.3 | |
| 20260906020022 | 28 | 0.0 | 0.0 | 0.00 | 0.00 | 0.00 | 70 | 1011.2 | |
| 20260906015022 | 28 | 0.0 | 0.0 | 0.00 | 0.00 | 0.00 | 70 | 1011.1 | |
| 20260906014027 | 28 | 0.0 | 0.0 | 0.00 | 0.00 | 0.00 | 69 | 1010.9 | |
| 20260906013102 | 28 | 0.0 | 0.0 | 0.00 | 0.00 | 0.00 | 71 | 1010.8 | |
| 20260906012022 | 28 | 0.0 | 0.0 | 0.00 | 0.00 | 0.00 | 67 | 1010.7 | |
| 20260906011017 | 28 | 0.0 | 0.0 | 0.00 | 0.00 | 0.00 | 70 | 1010.7 | |
| 20260906010022 | 29 | 0.0 | 0.0 | 0.00 | 0.00 | 0.00 | 68 | 1010.7 | |
| 20260906005048 | 29 | 0.0 | 0.0 | 0.00 | 0.00 | 0.00 | 68 | 1010.5 | |
| 20260906004022 | 30 | 274 | 0.0 | 3.2 | 0.00 | 0.00 | 0.00 | 65 | 1010.5 |
| 20260906003042 | 30 | 274 | 0.0 | 3.2 | 0.00 | 0.00 | 0.00 | 62 | 1010.3 |
| 20260906002022 | 30 | 274 | 0.0 | 3.2 | 0.00 | 0.00 | 0.00 | 62 | 1010.3 |
| 20260906001036 | 31 | 274 | 0.0 | 3.2 | 0.00 | 0.00 | 0.00 | 61 | 1010.3 |
| 20260906000042 | 31 | 274 | 0.0 | 3.2 | 0.00 | 0.00 | 0.00 | 58 | 1010.3 |
| 20260905235021 | 32 | 274 | 0.0 | 3.2 | 0.00 | 0.00 | 0.00 | 57 | 1010.2 |
| 20260905234022 | 32 | 274 | 0.0 | 3.2 | 0.00 | 0.00 | 0.00 | 57 | 1010.3 |
| 20260905233021 | 32 | 274 | 0.0 | 3.2 | 0.00 | 0.00 | 0.00 | 54 | 1010.3 |